This is the latest recevied weather packets stored in our database for station/object IZ1HMT-3. If no packets are shown the sender has not sent any weather packets the latest 10 day(s).
| Time | Temp. | Humidity | Pressure | Rain* | Wind** | Luminosity | Snow |
|---|---|---|---|---|---|---|---|
| 1788024986 | 30.56° C | 44% | 1013.6 hPa | - | - | - | - |
| 1788023173 | 31.11° C | 44% | 1013.5 hPa | - | - | - | - |
| 1788022569 | 31.11° C | 44% | 1013.5 hPa | - | - | - | - |
| 1788021361 | 31.11° C | 44% | 1013.5 hPa | - | - | - | - |
| 1788020756 | 31.67° C | 43% | 1013.4 hPa | - | - | - | - |
| 1788020152 | 31.67° C | 42% | 1013.4 hPa | - | - | - | - |
| 1788019549 | 32.22° C | 41% | 1013.4 hPa | - | - | - | - |
| 1788018944 | 32.22° C | 40% | 1013.4 hPa | - | - | - | - |
| 1788018340 | 32.22° C | 40% | 1013.4 hPa | - | - | - | - |
| 1788017736 | 32.78° C | 38% | 1013.4 hPa | - | - | - | - |
| 1788015930 | 32.22° C | 40% | 1013.8 hPa | - | - | - | - |
| 1788014111 | 32.22° C | 40% | 1013.7 hPa | - | - | - | - |
| 1788013507 | 31.67° C | 40% | 1013.8 hPa | - | - | - | - |
| 1788012903 | 32.78° C | 38% | 1013.9 hPa | - | - | - | - |
| 1788012299 | 33.33° C | 37% | 1013.9 hPa | - | - | - | - |
| 1788011694 | 34.44° C | 36% | 1013.9 hPa | - | - | - | - |
| 1788011090 | 34.44° C | 36% | 1014 hPa | - | - | - | - |
| 1788010486 | 32.78° C | 38% | 1014.1 hPa | - | - | - | - |
| 1788009278 | 32.22° C | 37% | 1014.2 hPa | - | - | - | - |
| 1788008674 | 32.22° C | 38% | 1014.3 hPa | - | - | - | - |
| 1788008070 | 32.22° C | 38% | 1014.5 hPa | - | - | - | - |
| 1788007466 | 32.78° C | 36% | 1014.5 hPa | - | - | - | - |
| 1788006861 | 33.89° C | 35% | 1014.6 hPa | - | - | - | - |
| 1788006257 | 33.89° C | 36% | 1014.7 hPa | - | - | - | - |
| 1788005653 | 34.44° C | 34% | 1014.7 hPa | - | - | - | - |
* Rain since midnight (hover to see other rain measurements)
** Current wind speed in m/s (hover to see current wind gust speed)